#timestamp,LO_Frequency,Hit,StdDev 
1610172015.4,286046998.5,N
1610172035.2,286047001.1,N
1610172055.1,286047001.1,N
1610172056.0,286047001.1,N
1610172075.8,286047001.2,N
1610172095.6,286046998.7,N
1610172115.5,286046998.5,N
1610172135.3,286046998.7,N
1610172155.2,286046998.1,N
1610172175.9,286046998.5,N
1610172195.7,286046998.6,N
1610172215.6,286046998.9,N
1610172235.4,286046998.5,N
1610172255.2,286046998.3,N
1610172275.1,286046998.6,N
1610172276.0,286046998.6,N
1610172295.8,286046998.2,N
1610172315.7,286046998.5,N
1610172335.5,286046998.1,N
1610172355.3,286046998.1,N
1610172375.2,286046998.2,N
1610172395.0,286046998.2,N
1610172395.9,286046998.2,N
1610172415.7,286046998.5,N
1610172435.6,286046998.7,N
1610172455.4,286046998.1,N
1610172475.3,286046998.6,N
1610172495.1,286046999.3,N
1610172496.0,286046999.3,N
1610172515.8,286046998.5,N
1610172535.7,286046998.6,N
1610172555.5,286046999.0,N
1610172575.4,286046998.8,N
1610172595.2,286046998.9,N
1610172615.0,286046999.0,N
1610172615.9,286046999.0,Y
1610172635.8,286047000.6,P
1610172655.6,286047000.5,N
1610172675.4,286047000.4,N
1610172695.3,286047000.3,N
1610172715.1,286047000.3,N
1610172735.9,286047000.3,N
1610172755.7,286047000.4,N
1610172775.5,286047000.4,N
1610172795.4,286047000.5,N
1610172815.2,286047000.5,N
1610172835.0,286047000.3,N
1610172835.9,286047000.3,N
1610172855.8,286047000.5,N
1610172875.6,286047000.5,N
1610172895.5,286046999.8,N
1610172915.3,286047000.9,N
1610172935.1,286047001.0,N
1610172955.9,286047000.9,N
1610172975.7,286047000.3,N
1610172995.5,286047000.4,N
1610173015.4,286047000.4,N
1610173035.2,286047000.5,N
1610173055.1,286047000.3,N
1610173056.0,286047000.3,N
1610173075.8,286047000.3,N
1610173095.6,286047000.0,N
1610173115.5,286047000.7,N
1610173135.3,286047000.0,N
1610173155.1,286047000.3,N
1610173175.9,286047000.7,N
1610173195.7,286047000.4,N
1610173215.6,286047000.5,N
1610173235.4,286047000.5,N
1610173255.2,286047000.5,N
1610173275.1,286047000.3,N
1610173276.0,286047000.3,N
1610173295.8,286047001.0,Y
1610173315.7,286047000.3,P
1610173335.5,286047000.5,P
1610173355.3,286047000.5,P
1610173375.2,286046999.9,N
1610173395.9,286047000.0,N
1610173415.7,286047000.4,N
1610173435.6,286047000.5,N
1610173455.4,286047001.0,Y
1610173475.3,286046998.1,P
1610173495.1,286046998.2,N
1610173496.0,286046998.2,N
1610173515.8,286047001.1,N
1610173535.7,286047000.8,N
1610173555.5,286047000.8,N
1610173575.3,286047000.6,N
1610173595.2,286046998.1,N
1610173615.0,286047000.5,N
1610173615.9,286047000.5,N
1610173635.8,286046998.2,N
1610173655.6,286047000.7,N
1610173675.4,286047001.2,N
1610173695.3,286047000.8,N
1610173715.1,286046998.2,N
1610173735.8,286046998.5,N
1610173755.7,286046998.2,N
1610173775.5,286046998.7,N
1610173795.4,286046998.9,N
1610173815.2,286046998.4,N
1610173835.0,286046998.6,N
1610173835.9,286046998.6,N
1610173855.8,286046998.8,N
1610173875.6,286046998.7,N
1610173895.4,286046998.9,N
1610173915.3,286046998.8,N
1610173935.1,286046998.5,N
1610173955.9,286046998.5,N
1610173975.7,286046998.9,N
1610173995.5,286046999.0,N
1610174015.4,286046998.4,N
1610174035.2,286046998.8,N
1610174055.0,286046998.8,N
1610174056.0,286046998.8,N
1610174075.8,286046998.6,N
1610174095.6,286046998.9,N
1610174115.5,286046998.8,N
1610174135.3,286046998.8,N
1610174155.1,286046998.8,N
1610174175.9,286046999.3,N
1610174195.7,286046998.9,N
1610174215.5,286046998.8,N
1610174235.4,286047001.2,N
1610174255.2,286046998.1,Y
1610174275.1,286047000.0,P
1610174276.0,286047000.0,N
1610174295.8,286047000.3,N
1610174315.6,286047000.0,N
1610174335.5,286047000.6,N
1610174355.3,286047000.9,N
1610174375.2,286047000.0,N
1610174395.9,286047000.0,N
1610174415.7,286047000.2,N
1610174435.6,286047000.4,N
1610174455.4,286046999.8,N
1610174475.2,286046999.9,N
1610174495.1,286047000.0,N
1610174496.0,286047000.0,N
1610174515.8,286047000.4,N
1610174535.7,286047000.4,N
1610174555.5,286047000.0,N
1610174575.3,286046999.9,N
1610174595.2,286047000.3,N
1610174615.9,286047000.3,N
1610174635.7,286047000.0,N
1610174655.6,286047000.5,N
1610174675.4,286047000.2,N
1610174695.3,286046999.9,N
1610174715.1,286046999.9,N
1610174716.0,286046999.9,N
1610174735.8,286047000.4,N
1610174755.7,286047000.0,N
1610174775.5,286046999.9,N
1610174795.3,286046999.8,N
1610174815.2,286046999.7,N
1610174835.0,286047000.1,N
1610174835.9,286047000.1,N
1610174855.8,286047000.2,N
1610174875.6,286047000.1,N
1610174895.4,286046999.8,N
1610174915.3,286046999.7,N
1610174935.1,286047000.4,N
1610174955.8,286046999.8,N
1610174975.7,286046999.8,N
1610174995.5,286047000.0,N
1610175015.4,286046999.9,N
1610175035.2,286046999.9,N
1610175055.0,286047000.2,N
1610175055.9,286047000.2,N
1610175075.8,286046999.7,N
1610175095.6,286046999.7,N
1610175115.4,286046999.7,N
1610175135.3,286047002.4,Y
1610175155.1,286047002.6,P
1610175175.9,286046999.8,N
1610175195.7,286046999.7,N
1610175215.5,286047002.2,N
1610175235.4,286046999.8,N
1610175255.2,286047002.2,N
1610175275.0,286047002.1,N
1610175276.0,286047002.1,N
1610175295.8,286047002.2,N
1610175315.6,286047002.6,N
1610175335.5,286047002.8,N
1610175355.3,286047002.8,N
1610175375.1,286047002.8,N
1610175395.9,286047002.7,N
1610175415.7,286047002.4,N
1610175435.6,286047000.1,N
1610175455.4,286047002.4,N
1610175475.2,286046999.9,N
1610175495.1,286047002.8,N
1610175496.0,286047002.8,N
1610175515.8,286047002.7,N
1610175535.6,286047002.4,N
1610175555.5,286047002.3,N
1610175575.3,286046999.8,N
1610175595.1,286047002.2,N
